BMCB-9 Weather Reports


time (UTC)temp
C
wind
direction
speed
KPH
gust
KPH
rain 1hr
cm
rain 24hr
cm
rain mn
cm
humidity
%
barometer
mb
20260505152057 11 0 0.0 0.0 0.00 0.23 0.23 95 1008.6
20260505124056 11 0 0.0 0.0 0.00 0.28 0.23 97 1009.4
20260505123055 11 0 0.0 0.0 0.00 0.28 0.23 97 1009.4
20260505122055 11 0 0.0 0.0 0.00 0.28 0.23 98 1009.3
20260505121054 11 0 0.0 0.0 0.00 0.28 0.23 97 1009.3
20260505120056 11 0 0.0 0.0 0.00 0.28 0.23 97 1009.4
20260505114056 11 0 0.0 0.0 0.00 0.28 0.23 96 1009.5
20260505111056 11 0 0.0 0.0 0.00 0.28 0.23 96 1009.6
20260505102055 11 0 0.0 0.0 0.00 0.28 0.23 98 1009.8
20260505101057 11 0 0.0 0.0 0.00 0.28 0.23 98 1009.7
20260505095055 11 0 0.0 0.0 0.00 0.28 0.23 99 1009.8
20260505094056 11 0 0.0 0.0 0.00 0.28 0.23 99 1009.8
20260505093056 11 0 0.0 0.0 0.00 0.28 0.23 99 1009.8
20260505092056 11 0 0.0 0.0 0.00 0.28 0.23 99 1009.8
20260505091056 11 0 0.0 0.0 0.00 0.28 0.23 99 1009.8
20260505090054 11 0 0.0 0.0 0.00 0.28 0.23 99 1009.9
20260505085056 11 0 0.0 0.0 0.00 0.28 0.23 99 1009.9
20260505084056 11 0 0.0 0.0 0.00 0.28 0.23 99 1009.8
20260505083123 11 0 0.0 0.0 0.00 0.28 0.23 99 1009.8
20260505082057 11 0 0.0 0.0 0.00 0.28 0.23 98 1010.0
20260505081054 11 0 0.0 0.0 0.00 0.28 0.23 98 1010.0
20260505080055 11 0 0.0 0.0 0.00 0.28 0.23 98 1009.9
20260505074056 11 0 0.0 0.0 0.00 0.28 0.23 98 1010.0
20260505073055 11 0 0.0 0.0 0.00 0.28 0.23 99 1010.0
20260505072057 11 0 0.0 0.0 0.00 0.28 0.23 99 1010.0
20260505071056 11 0 0.0 0.0 0.00 0.28 0.23 99 1010.0
20260505070051 11 0 0.0 0.0 0.00 0.28 0.23 99 1010.0
20260505065056 11 0 0.0 0.0 0.00 0.28 0.23 99 1010.0
20260505064053 11 0 0.0 0.0 0.03 0.28 0.23 99 1010.0
20260505063055 11 0 0.0 0.0 0.03 0.28 0.23 99 1010.0
20260505062053 11 0 0.0 0.0 0.05 0.28 0.23 99 1010.0
20260505060056 12 0 0.0 0.0 0.08 0.28 0.23 10 1010.0
20260505054056 12 0 0.0 0.0 0.13 0.28 0.23 10 1010.0
20260505053054 12 0 0.0 0.0 0.10 0.25 0.20 10 1010.1
20260505041054 11 0 0.0 0.0 0.05 0.10 0.05 99 1010.1
20260505040055 11 0 0.0 0.0 0.03 0.08 0.03 99 1010.1
20260505035055 11 0 0.0 0.0 0.00 0.05 0.00 99 1010.2
20260505034054 11 0 0.0 0.0 0.00 0.05 0.00 99 1010.2
20260505033055 11 0 0.0 0.0 0.00 0.05 0.00 99 1010.2
20260505031055 11 0 0.0 0.0 0.00 0.05 0.00 99 1010.4
20260505030055 11 0 0.0 0.0 0.00 0.05 0.00 99 1010.5
20260505025055 11 0 0.0 0.0 0.00 0.05 0.00 99 1010.5
20260505024056 11 0 0.0 0.0 0.00 0.05 0.00 99 1010.6
20260505023057 11 0 0.0 0.0 0.00 0.05 0.00 99 1010.7
20260505022054 11 0 0.0 0.0 0.00 0.05 0.00 99 1010.7
20260505015054 11 0 0.0 0.0 0.00 0.05 0.00 99 1010.6
20260505014055 11 0 0.0 0.0 0.00 0.05 0.00 99 1010.6
20260505013053 11 0 0.0 0.0 0.00 0.05 0.00 99 1010.6
20260505012054 11 0 0.0 0.0 0.00 0.05 0.00 99 1010.7
20260505011054 11 0 0.0 0.0 0.00 0.05 0.00 99 1010.7
20260505005057 11 0 0.0 0.0 0.00 0.05 0.00 99 1010.8
20260505004054 11 0 0.0 0.0 0.00 0.05 0.00 99 1011.0
20260505003056 11 0 0.0 0.0 0.00 0.05 0.00 99 1011.1
20260505002054 11 0 0.0 0.0 0.00 0.05 0.00 99 1011.2
20260505001056 11 0 0.0 0.0 0.00 0.05 0.00 99 1011.3
20260504235056 11 0 0.0 0.0 0.00 0.05 0.00 99 1011.5
20260504234056 11 0 0.0 0.0 0.00 0.05 0.00 99 1011.5
20260504233056 11 0 0.0 0.0 0.00 0.05 0.00 99 1011.5
20260504231058 11 0 0.0 0.0 0.00 0.05 0.00 99 1011.7
20260504230056 11 0 0.0 0.0 0.00 0.05 0.00 99 1011.7
20260504225058 11 0 0.0 0.0 0.00 0.05 0.00 98 1011.8
20260504224058 11 0 0.0 0.0 0.00 0.05 0.00 98 1011.9
20260504223057 11 0 0.0 0.0 0.00 0.05 0.00 98 1012.0
20260504222058 11 0 0.0 0.0 0.00 0.05 0.00 98 1012.1
20260504220056 11 0 0.0 0.0 0.00 0.05 0.00 98 1012.3
20260504215058 11 0 0.0 0.0 0.00 0.05 0.05 98 1012.2
20260504214101 11 0 0.0 0.0 0.00 0.05 0.05 98 1012.3
20260504213059 11 0 0.0 0.0 0.00 0.05 0.05 98 1012.4
20260504211059 12 0 0.0 0.0 0.00 0.05 0.05 97 1012.5
20260504210059 12 0 0.0 0.0 0.00 0.05 0.05 97 1012.5
20260504205057 12 0 0.0 0.0 0.00 0.05 0.05 97 1012.5
20260504204059 12 0 0.0 0.0 0.00 0.05 0.05 97 1012.6
20260504203100 12 0 0.0 0.0 0.00 0.05 0.05 97 1012.6
20260504202106 12 0 0.0 0.0 0.00 0.05 0.05 97 1012.6
20260504201103 12 0 0.0 0.0 0.00 0.05 0.05 97 1012.6
20260504200100 12 0 0.0 0.0 0.00 0.05 0.05 96 1012.5
20260504195058 12 0 0.0 0.0 0.00 0.05 0.05 96 1012.4
20260504194058 12 0 0.0 0.0 0.00 0.05 0.05 95 1012.3
20260504193059 12 0 0.0 0.0 0.00 0.05 0.05 95 1012.2
20260504192100 13 0 0.0 0.0 0.00 0.05 0.05 94 1012.2
20260504191100 13 0 0.0 0.0 0.00 0.05 0.05 94 1012.1
20260504190100 13 0 0.0 0.0 0.00 0.05 0.05 93 1012.1
20260504184058 14 0 0.0 0.0 0.00 0.05 0.05 91 1012.0
20260504183100 14 0 0.0 0.0 0.00 0.05 0.05 89 1011.9
20260504182057 14 0 0.0 0.0 0.00 0.05 0.05 88 1011.9
20260504181100 15 0 0.0 0.0 0.00 0.05 0.05 88 1012.0
20260504180058 15 0 0.0 0.0 0.00 0.05 0.05 89 1012.0
20260504175058 15 0 0.0 0.0 0.00 0.05 0.05 89 1012.1
20260504174057 15 0 0.0 0.0 0.00 0.05 0.05 89 1011.9
20260504173059 15 0 0.0 0.0 0.03 0.05 0.05 89 1012.0
20260504172058 15 0 0.0 0.0 0.03 0.05 0.05 90 1012.0
20260504171058 14 0 0.0 0.0 0.03 0.05 0.05 90 1012.0